Location: Newark
(36.8292°N, 10.0894°E)
Time: 15:07:22
(UTC+00:00)

N. Korean satellite - Visible Passes

Search period start: 14 December 2019 00:00
Search period end: 24 December 2019 00:00
Orbit: 455 x 507 km, 97.2° (Epoch: 13 December)

Date Brightness Start Highest point End Pass type
(mag) Time Alt. Az. Time Alt. Az. Time Alt. Az.
14 Dec 7.2 04:56:02 10° NNE 04:59:27 54° E 05:02:49 10° S visible
14 Dec 8.9 17:02:21 10° SSW 17:05:35 28° W 17:08:49 10° NW visible
15 Dec 9.0 04:31:06 10° NE 04:33:56 23° E 04:36:43 10° SSE visible
15 Dec 7.2 16:36:26 10° S 16:40:06 65° W 16:43:46 10° NNW visible
16 Dec 10.1 04:07:31 10° ENE 04:08:19 11° E 04:09:07 10° ESE visible
16 Dec 7.1 05:38:41 10° N 05:41:51 33° WNW 05:44:57 10° SW visible
17 Dec 6.3 05:13:00 10° N 05:16:29 81° WNW 05:19:53 10° SSW visible
17 Dec 9.8 17:20:14 10° SW 17:22:44 17° W 17:25:12 10° NW visible
18 Dec 7.9 04:47:44 10° NNE 04:51:01 40° E 04:54:15 10° S visible
18 Dec 8.4 16:53:46 10° SSW 16:57:11 36° W 17:00:35 10° NNW visible
19 Dec 9.4 04:23:02 10° NE 04:25:28 18° E 04:27:53 10° SE visible
19 Dec 7.8 05:56:11 10° NNW 05:58:45 20° WNW 06:01:18 10° WSW visible
19 Dec 6.7 16:28:03 10° S 16:31:44 85° WSW 16:35:23 10° NNW visible
20 Dec 6.7 05:30:10 10° N 05:33:27 43° WNW 05:36:42 10° SSW visible
20 Dec 10.4 17:39:32 10° W 17:39:53 10° W 17:40:15 10° W visible
21 Dec 6.6 05:04:37 10° NNE 05:08:03 75° ESE 05:11:28 10° S visible
21 Dec 9.4 17:11:26 10° SSW 17:14:18 21° W 17:17:08 10° NW visible
22 Dec 8.4 04:39:28 10° NNE 04:42:34 30° E 04:45:37 10° SSE visible
22 Dec 7.8 16:45:15 10° S 16:48:46 47° W 16:52:17 10° NNW visible
23 Dec 9.8 04:15:06 10° ENE 04:16:59 14° E 04:18:51 10° SE visible
23 Dec 7.5 05:47:31 10° NNW 05:50:23 25° WNW 05:53:14 10° SW visible
